Location: Danville Conservation Area
(38.8674°N, 91.5143°W)
Time: 01:46:09
(UTC-06:00)

Envisat - Pass Details

Date: 04 December 2021
Orbit: 764 x 766 km, 98.2° (Epoch: 23 January)

Event Time Altitude Azimuth Distance (km) Brightness Sun altitude
Rises 17:27:42 0° 207° (SSW) 3,217 7.1 -8.5°
Reaches altitude 10° 17:30:44 10° 226° (SW) 2,297 6.7 -9.1°
Maximum altitude 17:34:05 18° 268° (W) 1,830 6.1 -9.7°
Drops below altitude 10° 17:37:27 10° 310° (NW) 2,308 5.9 -10.3°
Sets 17:40:32 0° 329° (NNW) 3,239 6.4 -10.9°
